Location: Unnamed
(48.6007°N, 2.4808°E)
Time: 16:14:57
(UTC+01:00)

PRISM - Visible Passes

Search period start: 20 March 2023 00:00
Search period end: 30 March 2023 01:00
Orbit: 542 x 565 km, 98.3° (Epoch: 19 March)

Date Brightness Start Highest point End Pass type
(mag) Time Alt. Az. Time Alt. Az. Time Alt. Az.
20 Mar ? 06:08:36 10° NE 06:10:53 15° E 06:13:10 10° SE visible
21 Mar ? 06:05:40 10° ENE 06:07:43 13° E 06:09:44 10° ESE visible
22 Mar ? 06:02:46 10° ENE 06:04:30 12° E 06:06:15 10° ESE visible
23 Mar ? 05:59:56 10° ENE 06:01:17 11° E 06:02:38 10° ESE visible
24 Mar ? 05:57:17 10° ENE 05:58:02 10° E 05:58:46 10° E visible
